Corlu, Turkey

8:40 PM +03 on April 29, 2017 (GMT +0300)
Corlu Air Base

Weather History for LTBU - December, 2013

Change the Weather History Date:

Sunday, December 29, 2013

  Actual Average (LTBA) Record (LTBA)
Temperature  
Mean Temperature 46 °F -  
Max Temperature 50 °F 49 °F 60 °F (1999)
Min Temperature 41 °F 40 °F 32 °F (1996)
Degree Days  
Heating Degree Days 20    
Moisture  
Dew Point 41 °F    
Average Humidity 87    
Maximum Humidity 100    
Minimum Humidity 76    
Precipitation  
Precipitation 0.00 in - - ()
Sea Level Pressure  
Sea Level Pressure 30.08 in    
Wind  
Wind Speed 16 mph ()    
Max Wind Speed 24 mph    
Max Gust Speed -    
Visibility 6.1 miles    
Events      
Averages and records for this station are not official NWS values.
T = Trace of Precipitation, MM = Missing Value Source: Averaged Metar Reports

Daily Weather History Graph

Daily Weather History Graph

Search for Another Location

Airport or City:

Trip Planner

Search our weather history database for the weather conditions in past years. The results will help you decide how hot, cold, wet, or windy it might be!

Date:

Astronomy

Dec. 29, 2013 Rise Set
Actual Time 7:33 AM EET 4:47 PM EET
Civil Twilight 7:01 AM EET 5:18 PM EET
Nautical Twilight 6:27 AM EET 5:53 PM EET
Astronomical Twilight 5:53 AM EET 6:27 PM EET
Moon 3:54 AM EET 2:10 PM EET
Length of Visible Light 10h 16m
Length of Day
9h 14m
Waning Crescent, 13% of the Moon is Illuminated
Dec 29
Waning Crescent
Jan 1
New
Jan 8
First Quarter
Jan 16
Full
Jan 24
Last Quarter

Hourly Weather History & Observations

Time (EET) Temp. Windchill Dew Point Humidity Pressure Visibility Wind Dir Wind Speed Gust Speed Precip Events Conditions
12:20 AM 44.6 °F 36.9 °F 41.0 °F 87% 30.01 in - North 18.4 mph - N/A   Clear
12:50 AM 44.6 °F 36.4 °F 41.0 °F 87% 29.98 in - NNE 20.7 mph - N/A   Clear
1:20 AM 44.6 °F 36.6 °F 41.0 °F 87% 29.98 in - North 19.6 mph - N/A   Clear
1:50 AM 44.6 °F 36.6 °F 41.0 °F 87% 30.01 in - North 19.6 mph - N/A   Clear
2:20 AM 44.6 °F 36.4 °F 41.0 °F 87% 30.01 in - NNE 20.7 mph - N/A   Clear
2:50 AM 44.6 °F 36.1 °F 41.0 °F 87% 30.01 in - NNE 21.9 mph - N/A   Clear
3:20 AM 44.6 °F 36.4 °F 41.0 °F 87% 30.01 in - NNE 20.7 mph - N/A   Clear
3:50 AM 44.6 °F 36.6 °F 41.0 °F 87% 30.01 in - NNE 19.6 mph - N/A   Clear
4:20 AM 44.6 °F 36.9 °F 41.0 °F 87% 30.01 in - NNE 18.4 mph - N/A   Clear
4:50 AM 44.6 °F 37.4 °F 41.0 °F 87% 30.01 in - NE 16.1 mph - N/A   Clear
5:20 AM 44.6 °F 37.2 °F 41.0 °F 87% 30.01 in - NNE 17.3 mph - N/A   Clear
5:50 AM 44.6 °F 36.9 °F 41.0 °F 87% 30.01 in - NNE 18.4 mph - N/A   Clear
6:20 AM 44.6 °F 36.4 °F 41.0 °F 87% 30.04 in - NNE 20.7 mph - N/A   Clear
6:50 AM 44.6 °F 36.4 °F 41.0 °F 87% 30.04 in - NNE 20.7 mph - N/A   Clear
7:20 AM 44.6 °F 36.6 °F 41.0 °F 87% 30.06 in - NNE 19.6 mph - N/A   Clear
7:50 AM 44.6 °F 35.9 °F 41.0 °F 87% 30.04 in 6.2 mi NNE 23.0 mph - N/A   Mostly Cloudy
8:20 AM 44.6 °F 35.7 °F 41.0 °F 87% 30.04 in 6.2 mi NNE 24.2 mph - N/A   Mostly Cloudy
8:50 AM 44.6 °F 35.7 °F 42.8 °F 93% 30.06 in 6.2 mi NNE 24.2 mph - N/A   Mostly Cloudy
9:20 AM 46.4 °F 38.7 °F 42.8 °F 87% 30.06 in 6.2 mi NNE 20.7 mph - N/A   Mostly Cloudy
9:50 AM 46.4 °F 38.7 °F 42.8 °F 87% 30.09 in 6.2 mi NNE 20.7 mph - N/A   Mostly Cloudy
10:20 AM 48.2 °F - 42.8 °F 82% 30.09 in 6.2 mi NNE 17.3 mph - N/A   Mostly Cloudy
10:50 AM 48.2 °F - 42.8 °F 82% 30.09 in 6.2 mi NNE 10.4 mph - N/A   Mostly Cloudy
11:20 AM 50.0 °F - 42.8 °F 76% 30.09 in 6.2 mi NNE 12.7 mph - N/A   Mostly Cloudy
11:50 AM 50.0 °F - 42.8 °F 76% 30.09 in 6.2 mi NNE 15.0 mph - N/A   Mostly Cloudy
12:20 PM 50.0 °F - 42.8 °F 76% 30.09 in 6.2 mi North 13.8 mph - N/A   Mostly Cloudy
12:50 PM 50.0 °F - 42.8 °F 76% 30.09 in 6.2 mi NNE 12.7 mph - N/A   Mostly Cloudy
1:20 PM 50.0 °F - 42.8 °F 76% 30.09 in 6.2 mi NE 11.5 mph - N/A   Mostly Cloudy
1:50 PM 50.0 °F - 42.8 °F 76% 30.09 in 6.2 mi NNE 12.7 mph - N/A   Mostly Cloudy
2:20 PM 50.0 °F - 42.8 °F 76% 30.09 in 6.2 mi NNE 13.8 mph - N/A   Mostly Cloudy
2:50 PM 48.2 °F - 41.0 °F 76% 30.09 in - NNE 15.0 mph - N/A   Clear
3:20 PM 48.2 °F - 41.0 °F 76% 30.09 in - NNE 13.8 mph - N/A   Clear
3:50 PM 46.4 °F 40.1 °F 41.0 °F 81% 30.09 in - NNE 15.0 mph - N/A   Clear
4:20 PM 44.6 °F 38.4 °F 41.0 °F 87% 30.12 in - NNE 12.7 mph - N/A   Clear
4:50 PM 42.8 °F 37.0 °F 39.2 °F 87% 30.12 in - NNE 10.4 mph - N/A   Clear
5:20 PM 42.8 °F 36.2 °F 39.2 °F 87% 30.12 in - NNE 12.7 mph - N/A   Clear
5:50 PM 42.8 °F 35.8 °F 39.2 °F 87% 30.12 in - NNE 13.8 mph - N/A   Clear
6:20 PM 41.0 °F 33.9 °F 39.2 °F 93% 30.12 in - NNE 12.7 mph - N/A   Clear
6:50 PM 41.0 °F 34.3 °F 39.2 °F 93% 30.15 in - NNE 11.5 mph - N/A   Clear
7:20 PM 41.0 °F 33.5 °F 39.2 °F 93% 30.15 in - NNE 13.8 mph - N/A   Clear
7:50 PM 41.0 °F 34.3 °F 39.2 °F 93% 30.15 in - NNE 11.5 mph - N/A   Clear
8:20 PM 41.0 °F 33.9 °F 39.2 °F 93% 30.15 in - NNE 12.7 mph - N/A   Clear
8:50 PM 41.0 °F 34.7 °F 39.2 °F 93% 30.15 in - NNE 10.4 mph - N/A   Clear
9:20 PM 41.0 °F 33.9 °F 39.2 °F 93% 30.15 in - NNE 12.7 mph - N/A   Clear
9:50 PM 41.0 °F 33.9 °F 41.0 °F 100% 30.15 in - NNE 12.7 mph - N/A   Clear
10:20 PM 41.0 °F 34.7 °F 41.0 °F 100% 30.15 in - NE 10.4 mph - N/A   Clear
10:50 PM 41.0 °F 34.3 °F 39.2 °F 93% 30.15 in - NNE 11.5 mph - N/A   Clear
11:20 PM 41.0 °F 34.7 °F 39.2 °F 93% 30.15 in - NE 10.4 mph - N/A   Clear
11:50 PM 41.0 °F 34.7 °F 39.2 °F 93% 30.15 in 5.0 mi NNE 10.4 mph - N/A   Scattered Clouds